Location: Maiden
(35.5760°N, 81.2120°W)
Time: 22:09:09
(UTC-04:00)

A-11 Canister half - Pass Details

Date: 13 August 2020
Orbit: 1514 x 1686 km, 47.2° (Epoch: 26 September)

Event Time Altitude Azimuth Distance (km) Brightness Sun altitude
Rises 21:41:49 0° 292° (WNW) 4,789 13.3 -16.7°
Reaches altitude 10° 21:45:07 10° 299° (WNW) 3,828 12.4 -17.2°
Maximum altitude 21:54:23 44° 9° (N) 2,155 9.9 -18.8°
Enters shadow 22:03:39 11° 79° (E) 3,861 10.7 -20.4°
